www.pogodaiklimat.ru
ПОГОДА в Трейси
Время
и дата
09:35 18.07
09:55 18.07
10:15 18.07
10:35 18.07
10:55 18.07
11:15 18.07
11:35 18.07
11:55 18.07
12:15 18.07
12:35 18.07
12:55 18.07
13:15 18.07
13:35 18.07
13:55 18.07
14:15 18.07
14:20 18.07
19:15 18.07
19:35 18.07
19:55 18.07
20:15 18.07
20:35 18.07
20:55 18.07
21:15 18.07
21:35 18.07
21:55 18.07
22:15 18.07
22:35 18.07
22:55 18.07
23:15 18.07
23:35 18.07
23:55 18.07
00:15 19.07
00:35 19.07
00:55 19.07
01:15 19.07
01:35 19.07
01:50 19.07
02:15 19.07
02:35 19.07
02:55 19.07
03:15 19.07
03:35 19.07
03:55 19.07
04:15 19.07
04:35 19.07
04:55 19.07
05:15 19.07
05:25 19.07
Ветер
(напр.,м/с)
Видим. Явления Облачность Т
(С)
Тd
(С)
f
(%)
Тe
(С)
Тes
(С)
Комфортность P
(гПа)
Po
(гПа)
Тmin
(С)
Tmax
(С)
R
(мм)
R24
(мм)
S
(см)
СЗ 5 16 км ясно +31.0 +10.0 27 +31 +37 жарко 1008.3
СЗ 5 16 км ясно +31.0 +10.0 27 +31 +37 жарко 1008.3
СЗ 5 16 км ясно +32.0 +10.0 26 +32 +40 жарко 1008.3
С 5 16 км ясно +32.0 +11.0 28 +32 +40 жарко 1008.3
С 3 16 км ясно +32.0 +11.0 28 +32 +45 жарко 1008.3
СЗ 3
{6}
16 км ясно +33.0 +11.0 26 +33 +49 жарко 1008.3
С 3
{6}
16 км ясно +33.0 +11.0 26 +33 +49 жарко 1008.3
С 4 16 км ясно +34.0 +11.0 25 +34 +47 очень
жарко
1008.0
С 5
{7}
16 км ясно +34.0 +11.0 25 +34 +44 очень
жарко
1008.0
С 5 16 км ясно +34.0 +11.0 25 +34 +44 очень
жарко
1008.0
С 4 16 км ясно +35.0 +11.0 23 +34 +48 очень
жарко
1007.7
С 4 16 км ясно +36.0 +11.0 22 +35 +48 очень
жарко
1007.3
С 5 16 км ясно +36.0 +11.0 22 +35 +46 очень
жарко
1007.3
С 4
{7}
16 км ясно +37.0 +11.0 21 +36 +49 очень
жарко
1007.3
С 5 16 км ясно +37.0 +11.0 21 +36 +45 очень
жарко
1007.0
С 6 16 км ясно +37.0 +10.0 20 +36 +42 очень
жарко
1007.0
З 6 16 км ясно +33.0 +3.0 15 +30 +30 жарко 1006.6
З 6 16 км ясно +33.0 +2.0 14 +30 +30 жарко 1006.6
З 5 16 км ясно +32.0 +2.0 15 +29 +29 жарко 1007.0
З 5 16 км ясно +32.0 +2.0 15 +29 +29 жарко 1007.0
З 5 16 км ясно +32.0 +2.0 15 +29 +29 жарко 1007.0
З 5 16 км ясно +32.0 +2.0 15 +29 +29 жарко 1007.0
нст 2
{5}
16 км ясно +32.0 +2.0 15 +29 +29 жарко 1007.3
нст 2 16 км ясно +32.0 +3.0 16 +29 +29 жарко 1007.3
нст 3 16 км ясно +32.0 +3.0 16 +29 +29 жарко 1007.3
З 2 16 км ясно +31.0 +4.0 18 +29 +29 жарко 1007.0
штиль 0 16 км ясно +30.0 +4.0 19 +28 +28 жарко 1007.0
штиль 0 16 км ясно +30.0 +4.0 19 +28 +28 жарко 1007.0
З 3 16 км ясно +30.0 +4.0 19 +28 +28 жарко 1007.0
штиль 0 16 км ясно +31.0 +4.0 18 +29 +29 жарко 1007.0
СВ 2 16 км ясно +29.0 +5.0 22 +28 +28 жарко 1007.0
СВ 2 16 км ясно +27.0 +6.0 26 +26 +26 жарко 1007.0
В 2 16 км ясно +26.0 +7.0 30 +26 +26 жарко 1007.0
В 4 16 км ясно +24.0 +8.0 36 +24 +24 комфорт 1007.0
ЮВ 4 16 км ясно +23.0 +10.0 44 +25 +25 комфорт 1007.0
ЮВ 3 16 км ясно +22.0 +10.0 46 +24 +24 комфорт 1007.0
ЮВ 2 16 км ясно +22.0 +10.0 46 +24 +24 комфорт 1007.0
ЮВ 2 16 км ясно +22.0 +10.0 46 +24 +24 комфорт 1007.0
ЮВ 3 16 км ясно +21.0 +10.0 49 +23 +23 комфорт 1007.0
штиль 0 16 км ясно +21.0 +11.0 53 +23 +23 комфорт 1007.0
ЮВ 3 16 км ясно +22.0 +10.0 46 +24 +24 комфорт 1007.0
ЮВ 2 16 км ясно +22.0 +10.0 46 +24 +24 комфорт 1007.0
ЮВ 2 16 км ясно +22.0 +10.0 46 +24 +24 комфорт 1007.3
ЮВ 2 16 км ясно +21.0 +10.0 49 +23 +23 комфорт 1007.3
штиль 0 16 км ясно +21.0 +10.0 49 +22 +22 комфорт 1007.3
штиль 0 16 км ясно +21.0 +10.0 49 +22 +22 комфорт 1007.3
штиль 0 16 км ясно +20.0 +10.0 53 +21 +21 комфорт 1007.3
штиль 0 16 км ясно +21.0 +10.0 49 +22 +22 комфорт 1007.3
Местоположение метеостанции Tracy Municipal Airport: широта 37.6889 долгота -121.4416 высота над уровнем моря 51 м.
В архиве по умолчанию представлена погода в Трейси за последние 1-2 суток. Обновление информации о фактической погоде в базе происходит ежечасно! Архивные данные за месяц целиком и за предыдущие месяцы Вы можете получить, выбрав интересующий диапазон дат из раскрывающегося списка и нажав кнопку "Ввод!".
Внимание! Архив погоды МЕТАР в базе сайта по станциям, не включенным в климатический монитор, хранится не более 60 дней. Нет смысла пытаться выбрать более раннюю дату.
*Определитесь, кто Вы:
Внимание! Время в таблицах - местное (без учета летнего времени). Для получения всемирного времени необходимо вычесть поправку, которая равна -8 ч.
Смотрите также архив погоды в соседних городах и на ближайших метеорологических станциях:
Партнеры нашего сайта:      
Пояснения к столбцам:
  • Ветер - указаны скорость ветра в м/с - средняя за 10 мин, порывы в срок и между сроками (в фигурных скобках) и направление, откуда дует ветер: С - северный,
  • СВ - северо-восточный, В - восточный, ЮВ - юго-восточный, Ю - южный, ЮЗ - юго-западный, З - западный, СЗ - северо-западный.
  • Видимость - горизонтальная дальность видимости в метрах или километрах. При видимости от 1 до 10 км при отсутствии осадков обычно наблюдается дымка, при ухудшении видимости до 1 км и менее - туман. В сухую погоду видимость может ухудшаться дымом, пылью или мглою.
  • Явления - указаны атмосферные явления, наблюдавшиеся в срок или в последний час перед сроком; фигурными скобками обозначены явления, наблюдавшиеся между сроками (за 1-3 часа до срока); квадратными скобками обозначены град или гололедные отложения с указанием их диаметра в мм.
  • Облачность - указаны через наклонную черту общая и нижняя облачность в баллах и высота нижней границы облаков в метрах; квадратными скобками обозначены формы облаков: Ci - перистые, Cs - перисто-слоистые, Cc - перисто-кучевые, Ac - высококучевые, As - высокослоистые, Sc - слоисто-кучевые, Ns - слоисто-дождевые, Cu - кучевые, Cb - кучево-дождевые. Подробнее классификацию облаков см. в Атласе облаков (PDF).
  • T - Температура воздуха - температура, измеренная на высоте 2 м над землей.
  • Td - Температура точки росы - температура, при понижении до которой содержащийся в воздухе водяной пар достигнет насыщения.
  • f - Относительная влажность воздуха - влажноcть воздуха, измеренная на высоте 2 м над землей.
  • Te - Эффективная температура - температура, которую ощущает одетый по сезону человек в тени. Характеристика душности погоды. При расчете учитывается влияние влажности воздуха и скорости ветра на теплоощущения человека.
  • Tes - Эффективная температура на солнце - температура, которую ощущает человек, с поправкой на солнечный нагрев. Характеристика знойности погоды. Зависит от высоты солнца над горизонтом, облачности и скорости ветра. Ночью, в пасмурную погоду, а также при ветре 12 м/с и более поправка равна нулю.
  • P - Атмосферное давление - приведенное к уровню моря атмосферное давление.
  • Po - Атмосферное давление - измеренное на уровне метеостанции атмосферное давление.
  • Tmin - Минимальная температура - минимум температуры воздуха на высоте 2 м над землей.
  • Tmax - Максимальная температура - максимум температуры воздуха на высоте 2 м над землей.
  • R - Количество осадков - Количество выпавших осадков за период времени, мм. При наведении курсора мыши на число - период времени, за который выпало указанное количество осадков.
  • R24 - Количество осадков - Количество выпавших осадков за 24 часа, мм.
  • S - Снежный покров - Высота снежного покрова, см. При наведении курсора мыши на число - состояние снежного покрова и степень покрытия местности в баллах.